• Join FlightAware (Why Join?)
  • Login
  • US Flag 
 
10:52PM EST


 

Airport Tracker/Info


-or-


 

Live Flight TrackerFlight Track Log ✈ EGF4908 ✈ 28-Sep-2009 ✈ KLGA - CYUL

Flight Track Log - Related Links

Times and Time Zones

All times are in EDT time to prevent confusion due to time zone crossing. See the EGF4908 flight status page for this flight to view local times or setup timezone preferences in your user account.

Time Position Orientation Groundspeed Altitude Reporting Facility
EDT Latitude Longitude Course Direction KTS MPH feet Rate Location/Type
06:07PM 40.7333 -73.8333 72° East 178 205 2,100  Level New York TRACON
06:08PM 40.7500 -73.7667 29° Northeast 252 290 4,800 2,460 Climbing New York TRACON
06:08PM 40.7839 -73.7419 29° Northeast 250 288 6,400 2,160 Climbing Boston Center
06:09PM 40.8533 -73.6914 26° Northeast 269 310 8,300 1,860 Climbing Boston Center
06:10PM 40.9331 -73.6406 24° Northeast 295 339 10,200 1,560 Climbing Boston Center
06:11PM 41.0169 -73.5900 24° Northeast 335 386 11,500 1,380 Climbing Boston Center
06:12PM 41.1261 -73.5258 24° Northeast 384 442 13,000 1,500 Climbing Boston Center
06:13PM 41.2369 -73.4614 24° Northeast 416 479 14,500 1,320 Climbing Boston Center
06:14PM 41.3481 -73.3942 23° Northeast 429 494 15,700 1,260 Climbing Boston Center
06:15PM 41.4653 -73.3264 41° Northeast 440 506 17,100 1,560 Climbing Boston Center
06:16PM 41.5517 -73.2250 33° Northeast 447 514 18,900 1,740 Climbing Boston Center
06:17PM 41.6667 -73.1264 359° North 436 502 20,600 1,500 Climbing Boston Center
06:18PM 41.7939 -73.1306 351° North 434 499 21,900 1,380 Climbing Boston Center
06:19PM 41.9167 -73.1569 352° North 441 507 23,400 1,500 Climbing Boston Center
06:20PM 42.0458 -73.1808 353° North 446 513 25,000 1,560 Climbing Boston Center
06:21PM 42.1728 -73.2019 353° North 453 521 26,600 1,560 Climbing Boston Center
06:22PM 42.2978 -73.2231 355° North 453 521 28,200 1,200 Climbing Boston Center
06:23PM 42.4308 -73.2389 352° North 459 528 29,000 360 Climbing Boston Center
06:24PM 42.5661 -73.2661 351° North 474 545 29,000  Level Boston Center
06:25PM 42.7056 -73.2961 353° North 490 564 29,000  Level Boston Center
06:26PM 42.8514 -73.3208 353° North 511 588 29,000 600 Level Boston Center
06:27PM 42.9969 -73.3456 356° North 523 602 30,200 960 Climbing Boston Center
06:28PM 43.1386 -73.3592 355° North 523 602 31,000 360 Climbing Boston Center
06:29PM 43.2886 -73.3756 355° North 518 596 31,000  Level Boston Center
06:30PM 43.4364 -73.3922 356° North 524 603 31,000  Level Boston Center
06:31PM 43.5675 -73.4058 355° North 524 603 31,000  Level Boston Center
06:32PM 43.7153 -73.4225 356° North 524 603 31,000  Level Boston Center
06:33PM 43.8633 -73.4364 356° North 529 609 31,000  Level Boston Center
06:34PM 44.0069 -73.4503 355° North 529 609 31,000 -120 Level Boston Center
06:35PM 44.1547 -73.4672 356° North 529 609 30,800 -1,200 Descending Boston Center
06:36PM 44.2983 -73.4814 355° North 529 609 28,700 -2,220 Descending Boston Center
06:37PM 44.4544 -73.5017 356° North 542 624 26,400 -2,400 Descending Boston Center
06:38PM 44.6064 -73.5161 20° North 547 629 23,900 -2,160 Descending Boston Center
06:39PM 44.7297 -73.4539 69° East 524 603 22,100 -1,800 Descending Boston Center
06:40PM 44.7706 -73.3056 74° East 403 464 20,300 -1,560 Descending Boston Center
06:41PM 44.7964 -73.1742 147° Southeast 364 419 19,000 -660 Descending Boston Center
06:42PM 44.7386 -73.1208 178° South 226 260 19,000  Level Boston Center
06:43PM 44.6719 -73.1172 278° West 183 211 19,000  Level Boston Center
06:44PM 44.6836 -73.2342 299° West 141 162 19,000  Level Boston Center
06:45PM 44.7306 -73.3547 319° Northwest 252 290 19,000 -420 Level Boston Center
06:46PM 44.8047 -73.4464 353° North 303 349 18,200 -1,200 Descending Boston Center
06:47PM 44.9192 -73.4661 57° Northeast 345 397 16,600 -1,680 Descending Boston Center
06:48PM 44.9639 -73.3669 151° Southeast 267 307 14,900 -1,740 Descending Boston Center
06:49PM 44.8997 -73.3161 111° Southeast 104 120 13,200 -1,620 Descending Boston Center
06:50PM 44.8692 -73.2017 72° East 221 254 11,700 -1,500 Descending Boston Center
06:51PM 44.9014 -73.0583 68° East 277 319 10,200 -1,500 Descending Boston Center
06:52PM 44.9353 -72.9386 22° Northeast 308 354 8,700 -1,140 Descending Boston Center
06:53PM 45.0061 -72.8981 342° North 265 305 8,000 -360 Descending Boston Center
06:54PM 45.0833 -72.9333 317° Northwest 290 334 8,000  Level Montreal Center
06:55PM 45.1333 -73.0000 325° Northwest 290 334 8,000  Level Montreal Center
06:56PM 45.2000 -73.0667 352° North 290 334 8,000  Level Montreal Center
06:57PM 45.2833 -73.0833 352° North 310 357 8,000 -480 Level Montreal Center
06:58PM 45.3667 -73.1000 North 300 345 7,100 -840 Descending Montreal Center
06:59PM 45.4500 -73.0833 10° North 290 334 6,400 -600 Descending Montreal Center
07:00PM 45.5167 -73.0667 332° Northwest 300 345 6,000 -240 Descending Montreal Center
07:01PM 45.5833 -73.1167 270° West 290 334 6,000  Level Montreal Center
07:02PM 45.5833 -73.2167 234° Southwest 240 276 6,000  Level Montreal Center
07:03PM 45.5500 -73.2833 240° Southwest 230 265 6,000  Level Montreal Center
07:04PM 45.5167 -73.3667 335° Northwest 220 253 6,000 -120 Level Montreal Center
07:05PM 45.5667 -73.4000 10° North 250 288 5,800 -540 Descending Montreal Center
07:06PM 45.6333 -73.3833 314° West 270 311 5,000 -960 Descending Montreal Center
07:07PM 45.6667 -73.4333 250° West 180 207 3,900 -1,020 Descending Montreal Center
07:08PM 45.6500 -73.5000 226° Southwest 170 196 3,000 -480 Descending Montreal Center
07:09PM 45.6167 -73.5500 199° South 160 184 3,000 -60 Level Montreal Center
07:10PM 45.5833 -73.5667 226° Southwest 160 184 2,900 -480 Descending Montreal Center
07:11PM 45.5500 -73.6167 226° Southwest 160 184 2,100 -780 Descending Montreal Center
07:12PM 45.5167 -73.6667 234° Southwest 140 161 1,400 -660 Descending Montreal Center
07:13PM 45.5000 -73.7000 199° South 110 127 800 -600 Descending Montreal Center
07:14PM 45.4667 -73.7167 234° Southwest 110 127 200 -360 Descending Montreal Center
07:15PM 45.4500 -73.7500 234° Southwest 70 81 100 -120 Descending Montreal Center